Flag for China Weather past 2 weeks in Hangzhou, Zhejiang, China

63 °F


Feels Like: 63 °F
Forecast: 48 / 76 °F
Wind: No wind

Location: Hangzhou Airport

Current Time: Oct 13, 2015 at 9:54:49 PM

Latest Report: Oct 13, 2015 at 9:00 PM

Visibility: 4 mi

Pressure: 30.21 "Hg

Humidity: 56%

Dew point: 46 °F

Location of HangzhouLocation

Historic Weather in Hangzhou — Graph


Hangzhou temperature yesterday

Maximum temperature yesterday: 75 °F (at 1:30 PM)
Minimum temperature yesterday: 55 °F (at 1:00 AM)
Average temperature yesterday: 64 °F

Past Weeks' High & Low Weather Summary

High86 °F (Sep 30, 2:30 PM)100% (Sep 28, 8:30 PM)30.30 "Hg (Sep 28, 8:30 PM)
Low52 °F (Oct 13, 6:30 AM)30% (Oct 13, 1:30 PM)29.80 "Hg (Sep 30, 4:30 PM)
Average70 °F80%30.05 "Hg
* Reported Sep 28 8:00 PM — Oct 13 8:30 PM, Hangzhou, Weather by CustomWeather, © 2015

Note: Actual official high and low records may vary slightly from our data, if they occured in-between our weather recording intervals... More about our weather records


Hangzhou weather history for previous 24 hours

Time TempWeatherWind HumidityBarometerVisibility
8:30 PM
Tue, Oct 13
64 °FClear.1 mph60%30.18 "Hg4 mi
8:00 PM66 °FClear.1 mph56%30.18 "Hg4 mi
7:30 PM68 °FClear.1 mph49%30.18 "Hg4 mi
7:00 PM68 °FClear.3 mph43%30.18 "Hg4 mi
6:30 PM68 °FClear.3 mph49%30.18 "Hg4 mi
6:00 PM68 °FClear.6 mph49%30.18 "Hg4 mi
5:30 PM70 °FClear.3 mph43%30.18 "Hg5 mi
5:00 PM70 °FClear.6 mph43%30.18 "Hg5 mi
4:30 PM72 °FPassing clouds.6 mph41%30.18 "Hg5 mi
4:00 PM75 °FPassing clouds.6 mph34%30.18 "Hg5 mi
3:30 PM75 °FPassing clouds.6 mph31%30.18 "Hg5 mi
3:00 PM77 °FPassing clouds.3 mph32%30.18 "Hg5 mi
2:30 PM77 °FPassing clouds.3 mph34%30.18 "Hg5 mi
2:00 PM77 °FPassing clouds.3 mph30%30.18 "Hg5 mi
1:30 PM77 °FClear.6 mph30%30.21 "Hg5 mi
1:00 PM77 °FClear.3 mph34%30.21 "Hg5 mi
12:30 PM75 °FClear.3 mph31%30.24 "Hg4 mi
12:00 PM75 °FClear.1 mph36%30.24 "Hg4 mi
11:30 AM75 °FClear.1 mph36%30.24 "Hg4 mi
11:00 AM72 °FClear.3 mph38%30.27 "Hg4 mi
10:30 AM70 °FClear.3 mph43%30.27 "Hg4 mi
10:00 AM70 °FHaze.3 mph53%30.27 "Hg3 mi
9:30 AM66 °FHaze.3 mph60%30.30 "Hg3 mi
9:00 AM64 °FHaze.6 mph68%30.30 "Hg3 mi
8:30 AM63 °FHaze.6 mph73%30.30 "Hg3 mi
8:00 AM59 °FFog.6 mph82%30.30 "Hg3 mi
7:30 AM59 °FFog.6 mph82%30.27 "Hg3 mi
7:00 AM55 °FFog.3 mph94%30.27 "Hg3 mi
6:30 AM52 °FFog.3 mph94%30.27 "Hg3 mi
6:00 AM54 °FFog.3 mph88%30.24 "Hg3 mi
5:30 AM54 °FFog.3 mph88%30.24 "Hg2 mi
5:00 AM54 °FFog.3 mph88%30.24 "Hg3 mi
4:30 AM54 °FFog.3 mph88%30.24 "Hg3 mi
4:00 AM54 °FClear.1 mph88%30.21 "Hg4 mi
3:30 AM55 °FClear.3 mph82%30.21 "Hg4 mi
3:00 AM55 °FClear.3 mph88%30.24 "Hg4 mi
2:30 AM55 °FClear.3 mph82%30.24 "Hg4 mi
2:00 AM55 °FClear.3 mph82%30.24 "Hg4 mi
1:30 AM55 °FClear.1 mph82%30.24 "Hg4 mi
1:00 AM55 °FClear.3 mph82%30.24 "Hg4 mi
12:30 AM57 °FClear.3 mph77%30.24 "Hg4 mi
12:00 AM59 °FHaze.6 mph68%30.24 "Hg3 mi
11:30 PM
Mon, Oct 12
55 °FFog.3 mph82%30.24 "Hg3 mi
11:00 PM57 °FFog.No wind77%30.24 "Hg3 mi
10:30 PM57 °FClear.No wind82%30.24 "Hg4 mi
10:00 PM57 °FClear.No wind77%30.24 "Hg4 mi
9:30 PM59 °FClear.No wind68%30.24 "Hg4 mi
9:00 PM63 °FClear.3 mph56%30.24 "Hg4 mi
Weather by CustomWeather, © 2015

See weather overviewHow to use our weather pages